Regional Weather Roundup
Issued by NWS

Home | Current Version | Previous Version | Text Only | Print | Product List | Glossary Off
Versions: 1 2 3 4 5 6 7 8 9 10 11 12 13 14 15 16 17 18 19 20 21 22 23 24 25 26 27 28 29 30 31 32 33 34 35 36 37 38 39 40 41 42 43 44 45 46 47 48 49 50

000
ASUS45 KTFX 260110
RWRMT
MONTANA REGIONAL WEATHER ROUNDUP
NATIONAL WEATHER SERVICE GREAT FALLS MT
700 PM MDT MON JUL 25 2016

NOTE: "FAIR" INDICATES FEW OR NO CLOUDS BELOW 12000 FEET WITH NO
SIGNIFICANT WEATHER AND/OR OBSTRUCTIONS TO VISIBILITY.

MTZ001>007-043-260200-
WEST OF THE DIVIDE

CITY           SKY/WX    TMP DP  RH WIND       PRES   REMARKS
KALISPELL      SUNNY     88  50  27 SE8       29.99F
MISSOULA       MOSUNNY   91  43  18 N8        29.99F
BUTTE          CLOUDY    81  37  20 N6        30.16R
MULLAN PASS    SUNNY     72  42  34 VRB5      30.22S
ANACONDA         N/A     73  50  43 N7        30.12R
DEER LODGE       N/A     72  50  46 E7        30.12F
EUREKA           N/A     91  43  18 SW6       29.96F
HAMILTON         N/A     90  30  12 CALM      30.02S
LIBBY            N/A     91  45  19 NW5       29.96F
PLAINS           N/A     94  46  19 N3        29.96F HX  90
RONAN            N/A     87  47  24 NE2       30.05F
$$

MTZ008-052>055-260200-
SOUTHWEST MONTANA

CITY           SKY/WX    TMP DP  RH WIND       PRES   REMARKS
BOZEMAN        CLOUDY    84  44  24 NW8       30.03F
DILLON         MOSUNNY   82  31  15 W8G29     30.08S
W YELLOWSTONE  SUNNY     82  21  10 W7        30.21S
ENNIS          SUNNY     86  28  12 W3        30.14R
THREE FORKS      N/A     86  86 100 N2        30.03S HX 112
TWIN BRIDGES     N/A     85  38  18 N14       30.05S
$$

MTZ009-010-012-014-046-048-049-054-260200-
EAST SLOPES AND CENTRAL MONTANA

CITY           SKY/WX    TMP DP  RH WIND       PRES   REMARKS
CUT BANK         N/A     82  48  30 N6        30.08S
GREAT FALLS    SUNNY     88  42  20 N10       30.02F
MALMSTROM AFB  SUNNY     87  43  21 NE14      30.02F
HELENA         CLOUDY    76  58  53 S9        30.04R THUNDER
CHOTEAU          N/A     82  48  30 N14       30.09R
CONRAD           N/A     81  54  39 N2        30.09S
$$

MTZ011-013-016-021-045-047-050-051-260200-
NORTH CENTRAL MONTANA

CITY           SKY/WX    TMP DP  RH WIND       PRES   REMARKS
HAVRE          SUNNY     89  46  22 W8        29.96F
LEWISTOWN      SUNNY     83  51  33 N5        30.08S
N BAR RANCH      N/A     82  46  28 N12       30.11S
CHINOOK          N/A     90  46  22 CALM      29.96S
$$

MTZ017>020-022>027-061-062-260200-
NORTHEAST MONTANA

CITY           SKY/WX    TMP DP  RH WIND       PRES   REMARKS
GLASGOW        SUNNY     89  54  30 VRB6      29.95S
JORDAN           N/A     92  44  19 NE13      29.95S
SIDNEY         SUNNY     87  57  35 NE13      29.96R
WOLF POINT     SUNNY     92  50  23 NE9       29.95S
PLENTYWOOD       N/A     88  55  33 E10       29.99R
POPLAR           N/A     88  54  31 NE8       29.96S
SCOBEY           N/A     82  57  42 N8        30.00R
$$

MTZ028>42-056>058-260200-
SOUTHCENTRAL AND SOUTHEAST MONTANA

CITY           SKY/WX    TMP DP  RH WIND       PRES   REMARKS
BAKER          SUNNY     91  50  24 NE13      29.96F
BILLINGS       MOSUNNY   93  33  12 NE14      29.96S
LIVINGSTON     MOSUNNY   84  43  23 E9        30.02S
MILES CITY     SUNNY     97  40  14 NE15      29.91F HX  92
EKALAKA          N/A     92  44  18 N6        29.97F
FORSYTH          N/A     97  41  14 CALM      29.91F HX  92
LAUREL           N/A     94  43  17 N9        29.95F HX  90
ROUNDUP          N/A     88  47  24 N10       29.92S
$$

REGIONAL REPORTS...DAKOTAS

CITY           SKY/WX    TMP DP  RH WIND       PRES   REMARKS
WILLISTON      SUNNY     89  53  29 NE9       29.97S
MINOT          SUNNY     85  67  54 N8        29.95R
DICKINSON      SUNNY     86  52  30 NE9       29.94S
BEACH            N/A     82  57  42 N8        30.00S
CROSBY           N/A     81  66  61 SE6       30.00R
WATFORD CITY     N/A    N/A N/A N/A MISG        N/A
BISMARCK       SUNNY     92  61  35 CALM      29.90F HX  92
GRAND FORKS    MOSUNNY   88  67  49 SE5       29.89S HX  91
FARGO          PTCLDY    86  61  42 S8        29.91F
BUFFALO SD       N/A     91  47  21 E9        29.90S
RAPID CITY     CLOUDY    88  55  32 W3        29.98F
$$

REGIONAL REPORTS...WYOMING/IDAHO/WASHINGTON

CITY           SKY/WX    TMP DP  RH WIND       PRES   REMARKS
GILLETTE       SUNNY     90  34  13 E10G18    30.01F
SHERIDAN       SUNNY     96  35  11 N3        29.97F HX  91
BUFFALO WY     SUNNY     93  32  11 N8        30.06S
CODY           SUNNY     88  37  16 N3        30.06S
YELLOWSTONE LA   N/A     77  21  12 MISG      30.33F
IDAHO FALLS    SUNNY     92  30  11 S15       30.04F
SALMON         SUNNY     90  39  17 E6        29.97F
BOISE          MOSUNNY   99  30   9 W7        29.91F HX  93
SPOKANE        MOSUNNY   91  43  18 VRB6      29.97F
$$

REGIONAL REPORTS...ALBERTA

CITY           SKY/WX    TMP DP  RH WIND       PRES   REMARKS
EDMONTON       PTSUNNY   73  52  46 E9        30.01F
CALGARY        TSTM      63  57  82 NE3       30.11R
LETHBRIDGE     MOSUNNY   81  55  41 E8        30.03F
MEDICINE HAT   MOSUNNY   81  55  41 NE15      30.01F
WATERTON GATE    N/A     79  54  41 E6          N/A
MILK RIVER       N/A     81  52  36 N7          N/A
$$

REGIONAL REPORTS...SASKATCHEWAN

CITY           SKY/WX    TMP DP  RH WIND       PRES   REMARKS
SWIFT CURRENT  SUNNY     73  57  56 NE10      30.06S
REGINA         MOSUNNY   77  59  53 N12G17    30.02R
SASKATOON      PTSUNNY   75  48  38 NW12      30.04S
CYPRESS HILLS    N/A     72  57  60 NE8         N/A
ROCKGLEN         N/A     77  57  50 N10         N/A
ASSINIBOIA       N/A     75  52  43 SE5         N/A
$$



USA.gov is the U.S. government's official web portal to all federal, state and local government web resources and services.